Location: Unspecified
(0.0000°N, 0.0000°E)
Time: 04:31:08
(UTC+00:00)

QB50P2 - Pass Details

Date: 25 March 2026
Orbit: 517 x 528 km, 98.1° (Epoch: 20 April)

Event Time Altitude Azimuth Distance (km) Brightness Sun altitude
Rises 03:53:01 0° 48° (NE) 2,629 ? -33.2°
Maximum altitude 03:57:42 11° 102° (ESE) 1,671 ? -32.1°
Drops below altitude 10° 03:58:54 10° 121° (ESE) 1,754 ? -31.8°
Sets 04:02:24 0° 156° (SSE) 2,649 ? -30.9°
